TimeEDT,TemperatureF,Dew PointF,Humidity,Sea Level PressureIn,VisibilityMPH,Wind Direction,Wind SpeedMPH,Gust SpeedMPH,PrecipitationIn,Events,Conditions,WindDirDegrees,DateUTC
12:53 AM,66.0,62.1,87,30.22,10.0,NNE,3.5,-,N/A,,Clear,20,2013-04-26 04:53:00
1:53 AM,63.0,61.0,93,30.22,10.0,Calm,Calm,-,N/A,,Clear,0,2013-04-26 05:53:00
2:53 AM,62.1,59.0,90,30.21,9.0,North,3.5,-,N/A,,Clear,10,2013-04-26 06:53:00
3:53 AM,60.1,57.9,93,30.22,8.0,NNE,4.6,-,N/A,,Clear,20,2013-04-26 07:53:00
4:03 AM,60.8,59.0,94,30.22,8.0,NE,4.6,-,N/A,,Scattered Clouds,40,2013-04-26 08:03:00
4:13 AM,62.6,60.8,94,30.22,9.0,ENE,6.9,-,N/A,,Mostly Cloudy,60,2013-04-26 08:13:00
4:53 AM,64.0,61.0,90,30.22,8.0,ENE,4.6,-,N/A,,Overcast,60,2013-04-26 08:53:00
5:53 AM,64.0,61.0,90,30.24,9.0,ENE,5.8,-,N/A,,Overcast,60,2013-04-26 09:53:00
6:53 AM,64.0,60.1,87,30.26,10.0,ENE,6.9,-,N/A,,Overcast,70,2013-04-26 10:53:00
7:53 AM,64.0,59.0,84,30.30,8.0,ENE,9.2,-,N/A,,Mostly Cloudy,60,2013-04-26 11:53:00
8:19 AM,64.4,57.2,77,30.31,10.0,NE,11.5,-,N/A,,Overcast,50,2013-04-26 12:19:00
8:53 AM,66.0,57.0,73,30.33,10.0,NE,9.2,-,N/A,,Mostly Cloudy,50,2013-04-26 12:53:00
9:30 AM,68.0,57.2,68,30.34,10.0,East,12.7,-,N/A,,Scattered Clouds,80,2013-04-26 13:30:00
9:53 AM,69.1,57.0,65,30.34,10.0,East,10.4,-,N/A,,Scattered Clouds,80,2013-04-26 13:53:00
10:53 AM,72.0,54.0,53,30.37,10.0,NE,11.5,-,N/A,,Scattered Clouds,50,2013-04-26 14:53:00
11:53 AM,75.0,54.0,48,30.36,10.0,ENE,12.7,18.4,N/A,,Partly Cloudy,60,2013-04-26 15:53:00
12:53 PM,75.9,45.0,33,30.34,10.0,East,17.3,24.2,N/A,,Scattered Clouds,90,2013-04-26 16:53:00
1:53 PM,75.9,46.9,36,30.33,10.0,ENE,13.8,21.9,N/A,,Scattered Clouds,70,2013-04-26 17:53:00
2:53 PM,77.0,39.9,26,30.33,10.0,ESE,15.0,20.7,N/A,,Partly Cloudy,110,2013-04-26 18:53:00
3:53 PM,75.9,46.0,35,30.32,10.0,ESE,18.4,21.9,N/A,,Partly Cloudy,120,2013-04-26 19:53:00
4:53 PM,75.0,48.0,38,30.31,10.0,East,15.0,-,N/A,,Partly Cloudy,100,2013-04-26 20:53:00
5:53 PM,73.0,45.0,37,30.30,10.0,ESE,13.8,-,N/A,,Clear,120,2013-04-26 21:53:00
6:53 PM,70.0,46.0,42,30.31,10.0,East,11.5,-,N/A,,Clear,100,2013-04-26 22:53:00
7:53 PM,66.9,50.0,54,30.33,10.0,East,9.2,-,N/A,,Clear,100,2013-04-26 23:53:00
8:53 PM,64.0,52.0,65,30.35,10.0,East,6.9,-,N/A,,Clear,80,2013-04-27 00:53:00
9:53 PM,62.1,53.1,72,30.36,10.0,East,6.9,-,N/A,,Clear,90,2013-04-27 01:53:00
10:53 PM,62.1,54.0,75,30.33,10.0,East,10.4,-,N/A,,Clear,100,2013-04-27 02:53:00
11:53 PM,63.0,55.0,75,30.32,10.0,ESE,9.2,-,N/A,,Clear,110,2013-04-27 03:53:00